TimeCDT,TemperatureF,Dew PointF,Humidity,Sea Level PressureIn,VisibilityMPH,Wind Direction,Wind SpeedMPH,Gust SpeedMPH,PrecipitationIn,Events,Conditions,WindDirDegrees,DateUTC
12:15 AM,32.2,25.7,77,30.27,10.0,WSW,8.1,-,N/A,,Clear,250,2013-10-25 05:15:00
12:35 AM,32.0,25.9,78,30.27,10.0,West,6.9,-,N/A,,Clear,260,2013-10-25 05:35:00
12:55 AM,31.6,25.9,79,30.28,10.0,WSW,5.8,-,N/A,,Clear,250,2013-10-25 05:55:00
1:15 AM,30.6,26.2,84,30.28,10.0,WSW,5.8,-,N/A,,Clear,250,2013-10-25 06:15:00
1:35 AM,30.2,26.4,86,30.28,10.0,WSW,5.8,-,N/A,,Clear,250,2013-10-25 06:35:00
1:55 AM,30.2,26.4,86,30.28,10.0,WSW,6.9,-,N/A,,Clear,250,2013-10-25 06:55:00
2:15 AM,30.2,26.4,86,30.29,10.0,WSW,6.9,-,N/A,,Clear,250,2013-10-25 07:15:00
2:35 AM,30.6,26.6,85,30.29,10.0,West,6.9,-,N/A,,Clear,260,2013-10-25 07:35:00
2:55 AM,30.7,26.6,85,30.30,10.0,West,9.2,-,N/A,,Clear,260,2013-10-25 07:55:00
3:15 AM,30.7,26.6,85,30.30,10.0,West,10.4,-,N/A,,Clear,270,2013-10-25 08:15:00
3:35 AM,31.1,26.6,83,30.31,10.0,West,10.4,-,N/A,,Clear,260,2013-10-25 08:35:00
3:55 AM,30.9,26.6,84,30.31,10.0,West,10.4,-,N/A,,Clear,260,2013-10-25 08:55:00
4:15 AM,30.7,26.4,84,30.31,10.0,West,10.4,-,N/A,,Clear,270,2013-10-25 09:15:00
4:35 AM,30.4,26.2,85,30.32,10.0,West,8.1,-,N/A,,Clear,270,2013-10-25 09:35:00
4:55 AM,29.8,26.1,86,30.33,10.0,West,5.8,-,N/A,,Clear,260,2013-10-25 09:55:00
5:15 AM,29.3,25.7,86,30.34,10.0,WSW,6.9,-,N/A,,Clear,250,2013-10-25 10:15:00
5:35 AM,29.5,25.9,86,30.35,10.0,West,8.1,-,N/A,,Clear,260,2013-10-25 10:35:00
5:55 AM,28.9,25.7,88,30.35,10.0,West,5.8,-,N/A,,Clear,260,2013-10-25 10:55:00
6:15 AM,28.8,25.5,88,30.35,10.0,West,8.1,-,N/A,,Clear,270,2013-10-25 11:15:00
6:35 AM,29.3,25.5,86,30.36,10.0,West,6.9,-,N/A,,Clear,260,2013-10-25 11:35:00
6:55 AM,28.4,25.2,88,30.37,10.0,WSW,6.9,-,N/A,,Clear,250,2013-10-25 11:55:00
7:15 AM,27.7,25.0,90,30.37,10.0,WSW,8.1,-,N/A,,Clear,250,2013-10-25 12:15:00
7:35 AM,28.2,25.3,89,30.37,10.0,WSW,9.2,-,N/A,,Clear,250,2013-10-25 12:35:00
7:55 AM,28.9,25.7,88,30.37,10.0,West,6.9,-,N/A,,Clear,260,2013-10-25 12:55:00
8:15 AM,30.2,26.2,85,30.38,10.0,WSW,8.1,-,N/A,,Clear,250,2013-10-25 13:15:00
8:35 AM,31.5,26.8,83,30.39,10.0,West,10.4,-,N/A,,Clear,260,2013-10-25 13:35:00
8:55 AM,32.2,27.3,82,30.39,10.0,West,8.1,-,N/A,,Clear,270,2013-10-25 13:55:00
9:15 AM,33.1,28.0,82,30.40,10.0,West,6.9,-,N/A,,Clear,260,2013-10-25 14:15:00
9:35 AM,35.1,28.9,78,30.40,10.0,WSW,8.1,-,N/A,,Clear,250,2013-10-25 14:35:00
9:55 AM,37.2,29.5,74,30.40,10.0,West,8.1,-,N/A,,Clear,270,2013-10-25 14:55:00
10:15 AM,39.4,29.8,69,30.40,10.0,West,8.1,-,N/A,,Clear,280,2013-10-25 15:15:00
10:35 AM,40.8,30.0,65,30.40,7.0,WSW,9.2,-,N/A,,Clear,250,2013-10-25 15:35:00
10:55 AM,42.3,29.5,61,30.40,10.0,West,13.8,-,N/A,,Clear,260,2013-10-25 15:55:00
11:15 AM,43.3,28.8,56,30.40,10.0,West,11.5,17.3,N/A,,Clear,280,2013-10-25 16:15:00
11:35 AM,45.0,27.3,50,30.40,10.0,West,11.5,-,N/A,,Clear,260,2013-10-25 16:35:00
11:55 AM,45.9,26.6,47,30.39,10.0,West,12.7,20.7,N/A,,Scattered Clouds,270,2013-10-25 16:55:00
12:15 PM,45.3,25.5,46,30.38,10.0,West,12.7,-,N/A,,Scattered Clouds,260,2013-10-25 17:15:00
12:35 PM,46.4,25.2,43,30.37,10.0,WSW,8.1,19.6,N/A,,Scattered Clouds,250,2013-10-25 17:35:00
12:55 PM,47.1,24.3,41,30.35,10.0,WSW,16.1,-,N/A,,Scattered Clouds,240,2013-10-25 17:55:00
1:15 PM,47.8,23.7,39,30.34,10.0,West,15.0,18.4,N/A,,Scattered Clouds,260,2013-10-25 18:15:00
1:35 PM,48.2,23.0,37,30.33,10.0,West,16.1,20.7,N/A,,Scattered Clouds,270,2013-10-25 18:35:00
1:55 PM,48.6,22.6,36,30.33,10.0,West,11.5,-,N/A,,Mostly Cloudy,280,2013-10-25 18:55:00
2:15 PM,48.6,23.0,37,30.32,10.0,West,13.8,21.9,N/A,,Mostly Cloudy,260,2013-10-25 19:15:00
2:35 PM,47.8,22.5,37,30.31,10.0,West,9.2,-,N/A,,Scattered Clouds,270,2013-10-25 19:35:00
2:55 PM,47.1,22.6,38,30.30,10.0,West,11.5,-,N/A,,Scattered Clouds,280,2013-10-25 19:55:00
3:15 PM,48.2,22.8,37,30.29,10.0,West,13.8,23.0,N/A,,Mostly Cloudy,260,2013-10-25 20:15:00
3:35 PM,48.7,23.2,37,30.28,10.0,WSW,16.1,-,N/A,,Mostly Cloudy,240,2013-10-25 20:35:00
3:55 PM,48.2,23.4,38,30.27,10.0,West,8.1,-,N/A,,Scattered Clouds,270,2013-10-25 20:55:00
4:15 PM,48.6,24.3,39,30.27,10.0,West,10.4,-,N/A,,Scattered Clouds,260,2013-10-25 21:15:00
4:35 PM,48.0,24.6,40,30.26,10.0,SW,9.2,19.6,N/A,,Scattered Clouds,230,2013-10-25 21:35:00
4:55 PM,48.0,24.8,40,30.25,10.0,WSW,11.5,-,N/A,,Scattered Clouds,240,2013-10-25 21:55:00
5:15 PM,46.9,24.8,42,30.24,10.0,SW,8.1,-,N/A,,Clear,230,2013-10-25 22:15:00
5:35 PM,46.2,25.5,44,30.23,10.0,SW,8.1,-,N/A,,Clear,220,2013-10-25 22:35:00
5:55 PM,44.8,25.7,47,30.23,10.0,SW,6.9,-,N/A,,Clear,220,2013-10-25 22:55:00
6:15 PM,43.0,26.1,51,30.22,10.0,SSW,8.1,-,N/A,,Clear,210,2013-10-25 23:15:00
6:35 PM,42.1,26.1,53,30.22,10.0,SSW,6.9,-,N/A,,Clear,200,2013-10-25 23:35:00
6:55 PM,40.8,26.2,56,30.21,10.0,South,8.1,-,N/A,,Clear,190,2013-10-25 23:55:00
7:15 PM,40.6,26.4,57,30.21,10.0,SSW,9.2,-,N/A,,Clear,200,2013-10-26 00:15:00
7:35 PM,40.8,26.6,57,30.20,10.0,SSW,10.4,-,N/A,,Clear,200,2013-10-26 00:35:00
7:55 PM,40.8,26.8,57,30.20,10.0,SSW,9.2,-,N/A,,Clear,200,2013-10-26 00:55:00
8:15 PM,40.3,27.0,59,30.18,10.0,SSW,9.2,-,N/A,,Clear,200,2013-10-26 01:15:00
8:35 PM,40.1,27.0,59,30.18,10.0,SSW,11.5,-,N/A,,Clear,210,2013-10-26 01:35:00
8:55 PM,40.1,26.8,59,30.17,10.0,SSW,11.5,-,N/A,,Clear,210,2013-10-26 01:55:00
9:15 PM,40.1,26.6,59,30.17,10.0,SSW,10.4,-,N/A,,Clear,210,2013-10-26 02:15:00
9:35 PM,40.1,26.6,59,30.16,10.0,SSW,12.7,-,N/A,,Clear,210,2013-10-26 02:35:00
9:55 PM,40.1,26.6,59,30.16,10.0,SSW,12.7,19.6,N/A,,Clear,210,2013-10-26 02:55:00
10:15 PM,39.9,26.6,59,30.16,10.0,SSW,13.8,-,N/A,,Clear,210,2013-10-26 03:15:00
10:35 PM,39.6,26.6,60,30.15,10.0,SSW,13.8,-,N/A,,Clear,210,2013-10-26 03:35:00
10:55 PM,39.2,26.6,61,30.15,10.0,SSW,13.8,-,N/A,,Clear,210,2013-10-26 03:55:00
11:15 PM,39.0,26.6,61,30.14,10.0,SSW,12.7,17.3,N/A,,Clear,210,2013-10-26 04:15:00
11:35 PM,38.8,26.4,61,30.14,10.0,SSW,11.5,18.4,N/A,,Scattered Clouds,210,2013-10-26 04:35:00
11:55 PM,39.2,26.4,60,30.13,10.0,SSW,11.5,-,N/A,,Mostly Cloudy,210,2013-10-26 04:55:00